Tracking 28799 objects as of 18-Apr-2024
HD Live streaming from Space Station
objects crossing your sky now

DELTA 1 DEB (YO)

Track DELTA 1 DEB (YO) now!
10-day predictions


NORAD ID: 167
Int'l Code: 1961-017D
Perigee: 755.7 km
Apogee: 886.6 km
Inclination: 47.8 °
Period: 101.2 minutes
Semi major axis: 7192 km
RCS: 0.047 m2 (small)
Launch date: July 12, 1961
Source: United States (US)
Launch site: AIR FORCE EASTERN TEST RANGE (AFETR)

Note: This is SATELLITE DEBRIS
Your satellite tracking list
Your tracking list is empty




NASA's NSSDC Master Catalog

Two Line Element Set (TLE):
1 00167U 61017D   24101.98108832  .00000492  00000-0  27098-3 0  9990
2 00167  47.8458 313.3262 0091031  86.2092 274.9194 14.23359454251074
Source of the keplerian elements: AFSPC